STARLINK-31676, 59900

Orbit data source: Space-Track

STARLINK-31676, 59900 is a payload satellite owned by SpaceX/Seattle (US) in LEO that was launched on Tue, 28 May 2024 UTC via an FALCON 9 launch vehicle from the Air Force Eastern Test Range (AFETR). Payload-class satellites include a variety of spacecraft equipped with specific instruments for various scientific and technological missions. These include communications satellites like Starlink; space stations such as the ISS; scientific satellites like the Hubble; Earth observation satellites from companies like Planet Labs, Umbra, and HawkEye 360; GPS; miniature CubeSats for education and research; and military/defense satellites.

Loading next visibility...
Identifier
59900, 2024-100R
Orbit
LEO
Country
Flag of USUS
Related business
Manufacturer
SpaceX/Seattle
Mission
Operational Commercial Communications
Bus & Motor
STARLINK V2M, Unknown motor
Mass
730 kg wet, ~700 kg dry
Launch date (UTC)
2024-05-28 (2 years ago)
Launch vehicle
FALCON 9
Launch site
Air Force Eastern Test Range (AFETR)
Object type
Payload
Rocket body
Debris
Shape & HBR
Box + 2 Pan, 17.7 m
Radar Cross Section
33.884 m², Large (>1 m²)

Expand to show TLE details & history
Last TLE update: 22 hours ago

TLE from 22 hours ago
0 STARLINK-31676
1 59900U 24100R   25354.03409745  .00000994  00000-0  45643-4 0  9999
2 59900  43.0009 215.3271 0001367 268.5493  91.5202 15.27581850 88867
Epoch: 2025-12-20T00:49Z
TLE epoch observation values (Epoch: 2025-12-20T00:49:06.019Z)
Latitude
-0.00003°
Longitude
114.18529°
Altitude
482.844 km
Speed
7.626 km/s
True Right ascension
14h 21m 18s
True Declination
0° 00' 00"
Sunlit
Object was in daylight at epoch
Visualization orbit readout
Latitude
Unknown
Longitude
Unknown
Altitude
Unknown
Speed
Unknown
Apparent Right ascension
Unknown
Apparent Declination
Unknown
Sunlit
N/A
Visualization observer readout
Local Sidereal Time
21:33:46
Azimuth
Unknown
Elevation
Unknown
Doppler factor
Unknown
Orbital elements
Apogee altitude
485.927 km
Perigee altitude
484.05 km
Semi-major axis
6,863.126 km
Eccentricity
0.00014
Inclination
43.0009°
RAAN
215.3271°
Arg. of periapsis
268.5493°
True anomaly
91.53586°
Mean anomaly
91.5202°
Eccentric anomaly
91.52803°
Mean motion
3.81733 °/min
Orbital period
94.31 mins
BSTAR
0.000045643
Loading maneuver chart data...
Computing Atmospheric mass density...
Loading historical data...
Loading historical data...
Loading historical data...
Loading historical data...
Loading historical data...
Loading historical data...
Loading historical data...

Documentation

Showing up to 5 results
|